Starlink 31218

operational
NORAD ID: 58895 Int'l Des: 2024-020 Owner: SPXS Country: US Constellation: starlink
LEOCIRCULAR

About Starlink 31218

Description loading...

Live Position

Loading 3D Globe...

Upcoming Passes

Altitude History

Altitude vs Time

uPlot chart will show altitude changes over time

Two-Line Element Set

1 58895U 24020V 25351.68460495 -.00002032 00000-0 -56530-4 0 9993
2 58895 53.1627 343.4733 0001246 105.9030 254.2108 15.30182501105519
Epoch: Dec 17, 2025 • Age: 17 hours

Current Status

Altitude 476.7 km
Velocity 7.63 km/s
Sub-Earth Point -1.57°S, 106.73°E
Launch Date Jan 29, 2024
Age 1.8 years
Type internet

Technical Details

Classification Payload
Mass 730.00 kg
Dry Mass 700.00 kg
Total Mass 730.00 kg
Length 0.30 m
Diameter 4.10 m
Span 29.00 m
Shape Box + pan
Manufacturer SPXS
Bus Type Starlink V2M
Phase Status In Orbit
Owner/State SPXS/US

Large Constellations

Loading constellations...